TimeEST,TemperatureF,Dew PointF,Humidity,Sea Level PressureIn,VisibilityMPH,Wind Direction,Wind SpeedMPH,Gust SpeedMPH,PrecipitationIn,Events,Conditions,WindDirDegrees,DateUTC
12:15 AM,12.2,5.0,73,30.30,10.0,WSW,6.9,-,N/A,,Clear,250,2013-01-15 05:15:00
12:35 AM,12.2,5.0,73,30.30,10.0,West,5.8,-,N/A,,Clear,260,2013-01-15 05:35:00
12:54 AM,12.2,5.0,73,30.30,10.0,West,8.1,-,N/A,,Clear,260,2013-01-15 05:54:00
1:15 AM,12.2,3.2,67,30.31,10.0,West,5.8,-,N/A,,Clear,260,2013-01-15 06:15:00
1:34 AM,12.2,3.2,67,30.31,10.0,West,5.8,-,N/A,,Clear,260,2013-01-15 06:34:00
1:54 AM,10.4,3.2,73,30.31,10.0,West,5.8,-,N/A,,Clear,260,2013-01-15 06:54:00
2:15 AM,10.4,1.4,67,30.31,10.0,West,8.1,-,N/A,,Clear,270,2013-01-15 07:15:00
2:34 AM,10.4,1.4,67,30.33,10.0,West,9.2,-,N/A,,Clear,280,2013-01-15 07:34:00
2:54 AM,10.4,1.4,67,30.34,10.0,West,8.1,-,N/A,,Clear,280,2013-01-15 07:54:00
3:15 AM,8.6,1.4,73,30.34,10.0,West,6.9,-,N/A,,Clear,270,2013-01-15 08:15:00
3:34 AM,6.8,-0.4,72,30.34,10.0,West,5.8,-,N/A,,Clear,280,2013-01-15 08:34:00
4:14 AM,8.6,1.4,73,30.34,10.0,West,4.6,-,N/A,,Clear,260,2013-01-15 09:14:00
4:35 AM,8.6,-0.4,67,30.33,10.0,West,5.8,-,N/A,,Clear,260,2013-01-15 09:35:00
4:54 AM,8.6,-0.4,67,30.32,10.0,West,6.9,-,N/A,,Clear,260,2013-01-15 09:54:00
5:14 AM,8.6,-0.4,67,30.32,10.0,West,6.9,-,N/A,,Clear,260,2013-01-15 10:14:00
5:54 AM,8.6,1.4,73,30.32,10.0,West,9.2,-,N/A,,Clear,260,2013-01-15 10:54:00
6:15 AM,8.6,1.4,73,30.31,10.0,West,6.9,-,N/A,,Clear,270,2013-01-15 11:15:00
6:35 AM,8.6,1.4,73,30.32,10.0,West,9.2,-,N/A,,Clear,270,2013-01-15 11:35:00
6:54 AM,8.6,1.4,73,30.31,10.0,West,6.9,-,N/A,,Clear,270,2013-01-15 11:54:00
7:15 AM,8.6,1.4,73,30.31,10.0,WSW,3.5,-,N/A,,Clear,250,2013-01-15 12:15:00
7:34 AM,8.6,1.4,73,30.32,10.0,WSW,5.8,-,N/A,,Clear,250,2013-01-15 12:34:00
7:55 AM,8.6,1.4,73,30.31,10.0,Calm,Calm,-,N/A,,Clear,0,2013-01-15 12:55:00
8:14 AM,8.6,1.4,73,30.31,10.0,WSW,4.6,-,N/A,,Clear,250,2013-01-15 13:14:00
8:35 AM,8.6,1.4,73,30.31,10.0,West,5.8,-,N/A,,Clear,270,2013-01-15 13:35:00
8:55 AM,8.6,1.4,73,30.31,10.0,West,3.5,-,N/A,,Clear,260,2013-01-15 13:55:00
9:14 AM,10.4,1.4,67,30.31,10.0,SSW,3.5,-,N/A,,Clear,210,2013-01-15 14:14:00
9:35 AM,15.8,8.6,73,30.30,10.0,SSW,6.9,-,N/A,,Clear,210,2013-01-15 14:35:00
9:54 AM,17.6,10.4,73,30.29,10.0,SSW,9.2,-,N/A,,Clear,210,2013-01-15 14:54:00
10:15 AM,19.4,10.4,68,30.28,10.0,SSW,10.4,-,N/A,,Clear,200,2013-01-15 15:15:00
10:35 AM,21.2,12.2,68,30.27,10.0,SSW,9.2,-,N/A,,Clear,200,2013-01-15 15:35:00
10:54 AM,23.0,14.0,68,30.26,10.0,SSW,8.1,17.3,N/A,,Clear,210,2013-01-15 15:54:00
11:15 AM,24.8,14.0,64,30.25,10.0,SSW,11.5,18.4,N/A,,Clear,210,2013-01-15 16:15:00
11:34 AM,24.8,12.2,59,30.25,10.0,SW,11.5,18.4,N/A,,Clear,220,2013-01-15 16:34:00
11:54 AM,24.8,12.2,59,30.24,10.0,SW,9.2,18.4,N/A,,Clear,230,2013-01-15 16:54:00
12:15 PM,24.8,12.2,59,30.23,10.0,SSW,13.8,18.4,N/A,,Clear,210,2013-01-15 17:15:00
12:34 PM,26.6,15.8,64,30.22,10.0,SW,10.4,19.6,N/A,,Clear,220,2013-01-15 17:34:00
12:55 PM,26.6,15.8,64,30.21,10.0,SSW,12.7,18.4,N/A,,Scattered Clouds,210,2013-01-15 17:55:00
1:15 PM,26.6,15.8,64,30.19,10.0,SSW,11.5,23.0,N/A,,Scattered Clouds,210,2013-01-15 18:15:00
1:34 PM,26.6,17.6,69,30.18,10.0,SSW,12.7,19.6,N/A,,Scattered Clouds,210,2013-01-15 18:34:00
1:55 PM,28.4,15.8,59,30.17,10.0,SW,11.5,18.4,N/A,,Scattered Clouds,230,2013-01-15 18:55:00
2:14 PM,28.4,15.8,59,30.16,10.0,SSW,13.8,21.9,N/A,,Clear,210,2013-01-15 19:14:00
2:35 PM,28.4,15.8,59,30.16,10.0,SW,11.5,23.0,N/A,,Mostly Cloudy,220,2013-01-15 19:35:00
2:55 PM,28.4,15.8,59,30.16,10.0,SW,8.1,-,N/A,,Scattered Clouds,230,2013-01-15 19:55:00
3:14 PM,28.4,15.8,59,30.16,10.0,SW,11.5,17.3,N/A,,Clear,220,2013-01-15 20:14:00
3:35 PM,28.4,15.8,59,30.15,10.0,SW,12.7,17.3,N/A,,Clear,230,2013-01-15 20:35:00
3:54 PM,28.4,15.8,59,30.15,10.0,SW,11.5,20.7,N/A,,Scattered Clouds,220,2013-01-15 20:54:00
4:15 PM,26.6,15.8,64,30.14,10.0,SW,10.4,17.3,N/A,,Scattered Clouds,220,2013-01-15 21:15:00
4:35 PM,26.6,15.8,64,30.14,10.0,SW,11.5,18.4,N/A,,Mostly Cloudy,220,2013-01-15 21:35:00
4:54 PM,26.6,15.8,64,30.14,10.0,SW,12.7,17.3,N/A,,Scattered Clouds,220,2013-01-15 21:54:00
5:15 PM,26.6,15.8,64,30.14,10.0,SW,11.5,19.6,N/A,,Scattered Clouds,230,2013-01-15 22:15:00
5:34 PM,26.6,14.0,59,30.12,10.0,SW,9.2,21.9,N/A,,Scattered Clouds,230,2013-01-15 22:34:00
5:55 PM,26.6,14.0,59,30.12,10.0,SW,12.7,19.6,N/A,,Mostly Cloudy,220,2013-01-15 22:55:00
6:15 PM,26.6,14.0,59,30.12,10.0,SW,15.0,21.9,N/A,,Mostly Cloudy,220,2013-01-15 23:15:00
6:34 PM,26.6,15.8,64,30.11,10.0,SW,13.8,19.6,N/A,,Mostly Cloudy,220,2013-01-15 23:34:00
6:55 PM,26.6,15.8,64,30.11,10.0,SW,11.5,19.6,N/A,,Mostly Cloudy,220,2013-01-15 23:55:00
7:14 PM,26.6,15.8,64,30.10,10.0,SW,11.5,18.4,N/A,,Scattered Clouds,220,2013-01-16 00:14:00
7:35 PM,26.6,15.8,64,30.09,10.0,SW,13.8,23.0,N/A,,Clear,220,2013-01-16 00:35:00
7:55 PM,26.6,15.8,64,30.09,10.0,SW,11.5,24.2,N/A,,Clear,220,2013-01-16 00:55:00
8:14 PM,26.6,15.8,64,30.09,10.0,SW,16.1,21.9,N/A,,Clear,220,2013-01-16 01:14:00
8:35 PM,26.6,15.8,64,30.08,10.0,SW,15.0,23.0,N/A,,Mostly Cloudy,220,2013-01-16 01:35:00
8:54 PM,26.6,15.8,64,30.06,10.0,SW,15.0,20.7,N/A,,Scattered Clouds,220,2013-01-16 01:54:00
9:14 PM,26.6,15.8,64,30.06,10.0,SW,11.5,21.9,N/A,,Clear,220,2013-01-16 02:14:00
9:35 PM,26.6,15.8,64,30.05,10.0,SW,13.8,23.0,N/A,,Clear,220,2013-01-16 02:35:00
9:54 PM,26.6,15.8,64,30.04,10.0,SW,12.7,20.7,N/A,,Clear,220,2013-01-16 02:54:00
10:15 PM,26.6,15.8,64,30.03,10.0,SW,11.5,21.9,N/A,,Clear,230,2013-01-16 03:15:00
10:34 PM,26.6,15.8,64,30.02,10.0,SW,10.4,19.6,N/A,,Clear,220,2013-01-16 03:34:00
10:55 PM,26.6,15.8,64,30.01,10.0,SW,11.5,21.9,N/A,,Clear,220,2013-01-16 03:55:00
11:15 PM,26.6,15.8,64,30.01,10.0,SW,12.7,19.6,N/A,,Clear,220,2013-01-16 04:15:00
11:34 PM,26.6,15.8,64,29.99,10.0,SW,13.8,20.7,N/A,,Clear,220,2013-01-16 04:34:00
11:55 PM,26.6,17.6,69,29.97,10.0,SW,9.2,20.7,N/A,,Clear,220,2013-01-16 04:55:00